Temperature
23 22 22 22 21 20 21 22 23 23 22 23 23 22 21 20 19 18 18 17 17 16 16 16 16 15 15 15 14 14 13 12 12 11 11 10 10 10 10 10 10 9 9 10
23 22 22 22 22 21 21 21 21 22 22 23 22 21 21 21 20 19 19 18 17 17 17 16 16 16 15 15 14 14 13 12 12 11 11 10 10 10 10 9 9 9 9 9
24 22 22 23 24 22 22 22 22 22 23 23 22 22 21 20 20 19 19 18 17 17 17 17 17 16 16 15 14 14 13 13 12 11 11 11 10 10 10 9 9 9 9 9
23 23 22 25 24 23 22 22 22 22 22 22 21 20 19 19 19 19 19 18 17 17 17 17 16 16 15 15 15 14 14 13 12 12 11 11 10 10 10 10 9 9 9 9
23 23 24 23 23 22 23 23 23 23 23 22 21 21 22 20 19 19 19 18 18 17 17 17 17 16 16 16 15 15 14 13 13 12 12 11 11 10 10 10 10 10 9 9
22 23 23 24 23 22 23 23 23 23 23 22 21 24 23 20 19 19 19 18 18 17 17 17 16 16 16 16 16 15 14 14 13 13 12 12 11 11 10 10 10 10 10 9
22 23 24 23 21 22 23 24 22 22 22 22 22 22 20 19 19 19 19 19 18 18 17 17 16 16 16 16 16 15 15 14 14 13 13 12 12 11 11 10 10 10 10 10
22 22 23 21 21 23 23 21 21 21 21 20 20 19 19 18 19 19 19 19 19 18 18 17 17 16 16 16 16 15 15 15 14 14 13 13 12 12 11 11 11 10 10 10
23 23 20 18 20 18 17 19 20 19 19 19 19 19 18 18 18 19 19 18 19 18 18 17 17 17 16 16 16 15 15 15 15 14 14 14 13 12 12 11 11 11 10 10
22 22 19 17 16 15 16 17 17 17 18 18 18 18 17 17 18 18 18 18 18 18 18 17 17 16 17 16 16 16 16 15 15 15 14 14 14 13 12 12 12 11 11 11
22 21 18 16 15 15 15 15 15 16 17 17 17 17 17 17 17 17 17 17 18 17 17 17 17 16 16 16 16 16 16 15 15 15 15 15 14 14 13 13 12 12 11 11
23 22 21 19 15 14 14 14 14 15 15 16 16 15 15 16 16 16 16 16 16 16 16 16 16 16 16 16 16 16 15 15 15 15 15 15 15 14 14 14 13 13 12 12
20 18 18 15 14 13 13 13 13 13 14 14 14 14 14 14 14 14 14 15 15 14 14 14 14 15 15 15 15 15 15 15 15 15 15 15 14 14 14 14 14 14 13 13
15 15 14 13 13 12 12 12 12 12 12 13 13 13 13 13 13 13 13 13 12 12 13 13 13 13 14 14 14 14 14 14 15 15 15 14 14 14 14 14 13 13 13 13
14 15 14 13 12 11 11 11 11 11 11 11 11 11 11 11 11 11 11 11 11 11 11 11 12 12 12 12 13 13 13 13 13 13 13 13 14 14 14 14 14 13 13 13
13 12 12 12 11 11 11 11 11 10 10 10 10 10 10 10 10 10 10 10 10 10 10 10 10 10 10 11 11 11 11 11 12 12 12 12 13 13 13 13 13 13 13 13
12 11 11 11 10 10 10 10 10 10 9 9 9 9 9 8 9 9 8 8 8 8 8 8 9 9 9 9 9 10 10 10 10 10 10 11 11 12 12 12 13 13 13 13
15 14 12 11 10 9 9 9 9 9 8 8 8 8 8 8 8 7 7 7 7 7 7 7 8 7 7 8 8 8 8 8 8 9 9 9 9 10 11 11 12 12 12 13
11 11 10 10 9 9 9 8 8 8 8 7 7 7 7 7 7 7 6 7 7 7 6 7 7 6 6 6 7 7 7 7 7 7 8 8 8 9 9 10 10 11 11 12
9 9 9 9 8 8 8 8 7 7 7 7 7 7 7 6 6 6 6 6 6 5 5 6 5 5 5 6 6 6 6 6 6 6 6 7 7 8 8 8 9 9 10 11
9 8 8 8 7 7 7 7 7 7 7 7 6 6 6 6 6 6 5 5 5 5 5 5 5 5 5 5 5 5 5 5 5 5 5 5 6 6 6 7 7 8 8 9
8 8 7 7 7 7 7 7 6 6 6 6 6 6 6 5 5 5 5 5 5 5 5 4 4 5 5 5 4 5 5 5 5 5 5 5 5 5 5 5 5 6 6 7
8 7 7 7 7 7 6 6 6 6 6 6 5 5 5 5 5 5 5 5 5 5 4 4 4 5 5 4 4 4 4 4 4 4 4 4 4 4 4 4 4 4 5 5
7 7 7 7 6 6 6 6 6 5 5 5 5 5 5 5 5 5 5 5 5 5 4 4 4 4 4 4 4 4 4 4 4 4 4 4 4 4 3 3 3 3 4 4
7 7 6 6 6 6 6 6 5 5 5 5 5 5 5 5 5 5 4 4 4 4 4 4 4 4 4 4 4 4 4 4 3 3 3 3 3 3 3 3 3 3 3 3
6 6 6 6 6 6 6 6 6 5 5 5 5 5 5 5 5 4 4 4 4 4 4 4 4 4 4 4 4 3 3 3 3 3 3 3 3 3 3 3 2 2 2 2
6 6 6 6 6 6 6 6 6 5 5 5 5 5 5 5 4 4 4 4 4 4 4 4 3 3 3 3 3 3 3 3 3 3 3 3 3 3 2 2 2 2 2 2
Wind_Speed
2 1 3 5 8 11 11 7 5 5 8 10 8 6 6 4 4 6 8 9 9 9 8 7 7 7 6 5 4 5 5 6 5 5 5 6 6 6 7 7 8 8 9 9
6 4 5 7 9 11 11 9 9 10 9 4 5 5 5 5 4 6 7 9 9 9 9 8 7 6 5 5 4 5 5 6 5 5 5 6 6 7 7 7 8 8 9 9
5 5 4 9 11 12 7 8 7 5 3 5 7 6 6 5 5 6 6 7 8 8 8 7 7 6 5 5 4 5 5 5 4 5 5 6 6 6 7 8 8 8 9 9
3 6 6 2 5 7 7 6 8 7 7 7 7 7 6 6 6 6 5 6 7 7 8 7 7 6 5 5 5 5 5 4 4 4 5 5 6 6 7 7 8 8 8 9
4 5 5 3 6 7 6 5 6 6 4 4 4 4 1 2 3 5 4 4 5 6 7 7 6 6 6 6 5 5 5 5 5 4 5 5 6 7 7 7 8 8 8 8
5 5 5 5 8 5 5 6 4 4 2 2 3 1 3 4 4 3 4 4 4 5 7 7 7 6 7 7 6 6 6 5 5 5 6 6 7 7 6 6 7 8 7 7
9 6 4 5 7 6 6 4 4 3 2 2 2 4 5 5 5 4 3 3 4 5 6 7 7 7 8 8 8 6 6 6 7 7 7 7 7 7 7 7 7 8 8 7
7 8 5 7 8 7 2 4 2 2 2 2 3 4 4 4 5 4 3 2 3 5 6 6 7 8 10 9 8 6 7 8 9 9 8 7 8 8 7 7 8 8 7 7
7 3 4 4 3 1 1 2 1 2 1 2 2 2 3 4 5 5 4 3 3 4 6 6 6 8 10 10 8 8 9 10 10 10 10 9 9 9 8 7 7 7 6 6
6 6 5 4 3 2 3 4 2 1 0 1 1 2 3 4 5 6 6 5 4 4 5 6 6 6 9 10 9 10 11 11 10 11 11 10 9 9 8 8 7 7 7 6
7 5 6 6 6 4 4 4 4 4 4 4 4 4 5 5 7 7 7 7 6 5 6 7 7 6 7 8 9 10 11 12 12 11 11 10 10 9 10 10 9 8 7 7
9 10 9 8 9 8 7 7 6 7 7 7 6 6 6 7 7 8 8 8 8 8 8 8 8 8 9 9 9 10 11 11 10 10 9 10 10 10 13 14 10 13 13 11
3 7 6 10 10 9 8 8 7 7 7 8 7 7 7 7 8 8 9 10 10 10 10 10 10 10 12 12 11 10 11 11 10 10 10 10 10 10 10 11 15 16 16 16
10 11 10 10 10 11 11 10 9 9 9 8 8 8 8 8 8 9 10 10 10 10 11 11 11 12 14 14 13 12 11 10 10 10 10 10 10 10 10 10 9 9 13 18
13 9 9 11 13 13 12 11 10 9 9 9 8 8 8 8 9 9 9 9 9 11 12 12 12 14 14 14 14 13 11 9 10 10 10 10 10 10 10 11 11 11 9 10
15 11 14 16 15 14 13 12 11 10 9 8 8 8 7 7 8 8 9 9 10 11 12 12 13 14 15 15 15 12 11 12 12 11 11 10 10 10 10 11 11 11 11 11
20 18 18 18 17 15 13 11 10 10 9 8 7 7 6 7 7 8 8 9 9 9 11 12 13 14 14 15 16 12 12 13 14 11 10 10 10 10 11 11 11 11 11 11
17 17 18 18 17 16 14 12 10 9 8 8 7 7 7 7 7 7 7 8 8 9 11 12 13 13 13 15 15 12 12 12 13 12 11 11 11 11 11 11 12 13 12 11
15 17 17 17 16 15 13 12 11 10 9 8 7 7 7 7 6 6 6 8 9 10 11 13 14 13 14 16 16 11 13 14 13 13 13 13 12 11 11 11 12 12 12 12
18 18 18 17 15 14 13 12 11 9 8 7 7 7 6 6 5 5 5 6 7 7 9 11 12 12 13 14 15 11 13 13 14 13 13 13 13 13 13 13 13 13 13 12
19 18 17 16 14 13 12 11 10 9 8 6 6 5 4 3 3 3 4 4 6 8 9 9 9 10 11 14 13 11 12 13 13 13 13 13 14 14 14 14 14 14 14 13
18 17 16 15 14 12 11 10 9 8 7 6 4 3 2 1 1 2 3 3 5 8 8 8 8 11 15 15 11 11 12 12 12 12 12 13 13 14 14 15 14 14 14 15
15 15 15 14 13 12 11 9 8 7 6 5 4 3 2 1 2 3 4 4 6 9 9 8 10 14 17 13 10 11 12 12 12 12 12 12 13 13 14 15 14 14 14 15
14 13 13 12 12 11 10 9 7 6 5 5 4 4 4 3 4 4 5 6 7 10 9 9 12 15 15 11 11 11 12 12 12 12 13 13 13 13 13 13 14 14 15 17
13 13 12 12 11 9 9 9 8 7 6 5 5 5 5 5 5 6 7 8 9 10 10 11 12 13 12 11 11 12 12 12 13 14 13 13 13 14 13 13 14 14 14 15
11 10 10 10 8 7 7 7 6 6 6 6 5 5 6 5 6 7 7 9 10 10 10 10 10 11 10 11 12 13 13 13 14 13 14 14 15 15 14 14 17 15 14 15
11 9 8 8 7 7 6 6 6 6 6 6 6 6 6 6 6 7 8 8 9 9 9 9 10 10 11 12 13 13 13 13 14 14 14 14 14 15 15 17 15 15 15 15
Wind_Direction
225 150 202 217 202 201 219 243 267 293 296 305 323 323 315 296 255 230 227 225 228 235 243 253 264 275 291 296 280 266 269 279 293 304 308 315 321 321 320 320 322 327 326 327
207 205 229 241 228 215 227 245 256 277 288 296 314 300 292 279 255 241 234 229 230 233 240 248 256 266 280 286 280 270 272 280 289 296 305 309 318 321 321 320 321 323 322 326
212 185 230 245 220 204 207 214 230 251 316 332 314 314 306 301 274 260 250 235 231 233 238 248 258 268 282 301 295 277 278 282 286 294 302 308 316 315 315 315 318 318 319 322
219 196 228 119 118 179 200 218 223 252 286 303 307 305 289 280 273 271 256 238 231 231 233 240 248 253 269 276 274 273 278 282 283 285 292 298 304 310 313 316 317 315 316 317
223 224 235 182 176 180 193 186 199 231 270 309 317 278 138 37 289 272 267 248 237 233 234 237 244 252 260 265 268 274 278 275 273 273 280 291 301 308 315 315 315 316 318 311
222 232 229 159 143 166 196 185 172 212 259 315 293 307 47 23 347 308 271 249 239 230 232 237 242 246 257 268 269 270 269 263 262 263 270 279 290 299 306 305 308 309 311 311
227 237 240 133 144 167 203 164 144 198 247 263 272 345 354 343 334 323 301 262 240 235 236 238 240 241 252 263 267 269 259 254 252 252 258 267 277 282 287 294 300 306 311 308
208 221 215 142 168 197 102 99 155 205 243 273 292 322 339 348 349 341 323 299 258 246 246 242 239 243 255 264 273 268 252 248 249 250 252 255 257 267 276 282 287 294 303 311
212 217 89 159 191 41 304 236 216 233 265 278 281 338 0 5 7 3 350 334 298 271 268 261 248 248 261 271 274 263 254 250 251 252 249 249 254 259 265 268 277 290 298 304
220 222 195 186 201 217 237 236 239 230 233 195 115 44 35 30 22 16 11 1 340 309 291 289 282 267 269 281 281 269 262 263 259 256 254 247 245 252 257 263 269 277 286 293
222 188 177 200 198 186 172 163 144 119 97 86 89 67 51 44 33 23 18 12 4 349 334 326 321 308 300 296 289 278 272 269 267 261 259 260 253 245 250 252 254 261 275 279
221 196 190 183 167 168 161 149 140 127 106 85 77 72 64 54 39 30 24 19 15 9 358 349 345 339 335 324 306 290 282 278 274 269 262 259 259 253 231 237 234 226 239 256
170 146 144 140 149 157 151 139 129 120 110 98 81 74 69 62 47 40 34 28 23 18 11 7 4 1 355 343 327 306 292 286 281 275 270 263 260 260 264 240 228 234 233 233
150 140 145 159 158 155 146 137 126 114 103 93 85 77 72 66 55 44 35 29 26 25 21 17 13 8 358 349 340 325 310 299 290 282 274 269 265 260 260 265 258 246 230 226
178 180 164 153 149 150 149 146 136 122 109 96 86 77 71 65 56 45 35 28 29 29 23 16 12 5 356 351 345 336 328 319 312 299 287 277 271 264 260 258 259 259 254 224
168 159 152 153 154 154 155 152 140 127 116 104 92 81 74 69 62 51 40 32 30 27 18 13 9 1 356 352 347 341 337 329 320 309 298 290 280 271 265 261 258 258 255 251
161 166 166 162 158 156 153 147 137 129 121 110 98 90 83 76 64 49 38 31 30 27 18 10 4 356 356 357 352 346 342 340 334 323 317 307 299 289 280 273 267 262 260 254
177 169 165 160 154 148 144 140 134 128 120 113 109 98 84 70 58 45 34 29 29 29 20 9 1 352 357 1 353 347 347 347 345 341 334 327 318 307 298 289 282 276 272 260
158 152 150 148 146 144 141 139 135 128 124 121 113 99 87 74 61 48 39 36 27 20 10 3 351 356 1 3 354 349 351 350 349 348 345 338 331 325 317 308 300 291 284 277
146 144 142 141 142 142 140 139 137 131 127 123 116 107 94 76 58 44 37 39 30 8 357 353 350 359 358 358 351 351 352 352 350 350 350 349 345 340 335 328 320 311 302 292
145 144 144 144 144 144 144 144 141 136 133 130 123 112 97 78 52 30 17 17 14 358 345 337 345 355 353 345 338 348 350 350 349 350 349 348 346 344 341 339 333 327 320 312
148 149 149 148 148 148 149 148 144 143 143 144 142 137 127 78 13 355 357 342 337 336 330 333 341 346 339 330 334 341 342 344 344 344 345 344 344 342 340 339 335 333 330 325
151 152 153 155 155 152 152 155 157 158 163 169 175 188 221 287 308 312 320 329 326 328 319 318 327 324 321 321 329 331 333 334 335 336 337 336 336 336 335 334 333 332 329 328
153 155 156 156 156 160 166 169 172 178 186 197 211 228 248 265 277 279 288 291 292 301 302 309 307 311 312 314 320 322 323 324 324 325 326 327 327 327 327 328 327 326 325 324
157 159 160 164 170 176 177 175 182 191 204 215 225 230 241 253 267 283 291 295 298 296 301 305 306 307 307 312 316 316 316 315 316 315 313 316 317 318 319 319 320 319 319 318
164 168 172 181 184 183 182 187 197 202 207 217 226 234 240 245 256 266 276 286 292 294 297 304 308 307 310 313 313 312 312 311 309 308 309 310 310 312 312 313 314 314 312 312
173 175 179 186 190 194 196 201 211 216 218 225 234 240 248 256 265 275 283 289 296 299 302 304 307 308 309 309 309 310 309 308 307 307 306 306 306 306 307 308 308 307 307 306
Height
1533 1536 1537 1537 1541 1546 1544 1539 1539 1534 1534 1530 1529 1530 1530 1530 1530 1531 1532 1532 1533 1534 1535 1535 1534 1534 1533 1531 1529 1527 1525 1524 1522 1519 1517 1514 1512 1509 1506 1504 1502 1499 1496 1493
1535 1536 1536 1537 1535 1538 1541 1539 1538 1536 1534 1527 1529 1529 1528 1528 1528 1528 1529 1529 1530 1531 1532 1532 1532 1532 1531 1529 1527 1525 1524 1522 1520 1518 1516 1513 1510 1508 1505 1503 1500 1497 1494 1492
1531 1534 1536 1534 1525 1531 1533 1533 1533 1532 1528 1527 1527 1526 1526 1526 1526 1526 1526 1527 1527 1528 1529 1530 1530 1530 1529 1528 1526 1524 1522 1520 1518 1516 1514 1512 1509 1506 1504 1501 1498 1495 1492 1489
1529 1534 1540 1521 1520 1523 1527 1528 1528 1528 1527 1527 1526 1525 1525 1524 1524 1524 1524 1524 1525 1526 1526 1527 1527 1527 1526 1525 1524 1522 1521 1519 1517 1514 1512 1510 1508 1505 1503 1500 1497 1493 1490 1487
1529 1530 1524 1522 1521 1523 1525 1523 1523 1525 1525 1525 1524 1523 1522 1523 1522 1522 1522 1522 1523 1523 1524 1525 1525 1525 1525 1524 1523 1521 1519 1517 1515 1513 1511 1509 1506 1504 1501 1498 1495 1492 1489 1485
1530 1531 1527 1517 1517 1521 1523 1523 1522 1523 1523 1523 1523 1519 1521 1522 1520 1520 1520 1520 1520 1520 1521 1522 1522 1522 1522 1521 1520 1519 1517 1515 1513 1511 1509 1507 1505 1502 1500 1496 1493 1490 1487 1483
1527 1525 1515 1514 1519 1522 1525 1520 1520 1521 1522 1522 1521 1521 1522 1520 1519 1518 1518 1518 1518 1518 1519 1519 1519 1519 1518 1518 1518 1516 1514 1512 1510 1509 1507 1505 1502 1500 1497 1494 1491 1489 1486 1482
1521 1523 1517 1515 1517 1516 1515 1517 1518 1520 1520 1521 1521 1521 1520 1519 1517 1517 1516 1516 1516 1516 1516 1516 1516 1515 1515 1515 1514 1513 1511 1509 1507 1506 1504 1502 1499 1497 1495 1492 1489 1487 1484 1481
1509 1511 1511 1513 1514 1515 1515 1517 1518 1518 1519 1519 1519 1519 1518 1517 1516 1515 1515 1514 1514 1513 1513 1513 1513 1512 1512 1511 1510 1508 1507 1505 1504 1502 1500 1498 1496 1494 1492 1490 1488 1485 1483 1480
1507 1507 1510 1512 1512 1512 1513 1515 1515 1516 1517 1517 1518 1517 1517 1516 1515 1514 1513 1512 1512 1511 1511 1511 1510 1509 1508 1507 1505 1504 1503 1501 1500 1498 1496 1494 1492 1490 1489 1487 1485 1483 1480 1478
1502 1504 1509 1509 1509 1510 1511 1512 1513 1514 1514 1515 1516 1515 1515 1514 1513 1512 1511 1510 1509 1509 1508 1507 1506 1505 1503 1502 1500 1499 1498 1497 1495 1494 1492 1490 1488 1486 1484 1482 1481 1479 1477 1475
1494 1496 1500 1503 1505 1507 1509 1511 1512 1513 1513 1513 1514 1514 1513 1513 1512 1511 1510 1509 1508 1506 1505 1504 1503 1501 1499 1497 1495 1494 1492 1491 1490 1488 1486 1484 1483 1481 1478 1477 1475 1474 1472 1471
1492 1494 1497 1499 1502 1504 1507 1508 1510 1511 1512 1512 1512 1512 1512 1511 1511 1510 1509 1507 1505 1504 1502 1501 1499 1497 1495 1492 1490 1488 1487 1485 1484 1482 1480 1478 1477 1475 1473 1472 1470 1468 1467 1466
1489 1491 1495 1497 1499 1502 1505 1506 1508 1509 1510 1511 1511 1511 1511 1511 1510 1509 1507 1506 1504 1503 1501 1498 1496 1494 1491 1488 1486 1483 1481 1479 1477 1475 1473 1472 1470 1469 1467 1466 1465 1462 1461 1460
1485 1489 1491 1493 1496 1500 1502 1505 1507 1508 1509 1509 1510 1510 1510 1510 1509 1508 1506 1505 1503 1502 1499 1497 1494 1491 1488 1485 1482 1479 1477 1474 1471 1469 1467 1465 1463 1462 1461 1459 1458 1457 1456 1454
1480 1484 1487 1490 1493 1497 1500 1503 1505 1506 1507 1508 1508 1509 1508 1508 1508 1507 1505 1504 1502 1500 1498 1495 1493 1490 1486 1483 1480 1476 1473 1470 1466 1463 1461 1459 1457 1456 1454 1453 1452 1451 1450 1449
1473 1478 1482 1486 1490 1494 1497 1500 1503 1504 1506 1506 1507 1507 1507 1508 1507 1506 1505 1503 1502 1500 1497 1495 1492 1488 1485 1482 1478 1474 1471 1467 1463 1460 1457 1455 1453 1451 1449 1447 1446 1444 1443 1443
1469 1472 1477 1481 1486 1490 1494 1498 1500 1502 1503 1504 1505 1506 1506 1506 1506 1505 1504 1503 1501 1499 1497 1494 1490 1487 1484 1480 1476 1473 1469 1466 1462 1458 1455 1451 1448 1446 1444 1442 1440 1438 1437 1436
1466 1470 1476 1480 1485 1488 1492 1495 1498 1500 1502 1503 1504 1504 1505 1505 1504 1504 1503 1502 1500 1498 1496 1493 1489 1487 1484 1480 1475 1472 1468 1464 1460 1456 1453 1449 1445 1442 1440 1437 1435 1433 1431 1430
1464 1469 1474 1479 1483 1487 1491 1494 1496 1498 1500 1501 1502 1503 1504 1504 1503 1503 1502 1501 1499 1497 1495 1492 1489 1486 1483 1479 1475 1472 1468 1464 1460 1455 1451 1447 1444 1440 1437 1434 1431 1428 1426 1424
1464 1469 1473 1478 1482 1486 1490 1492 1495 1497 1498 1500 1501 1502 1502 1502 1502 1502 1501 1500 1498 1496 1493 1490 1488 1485 1482 1478 1474 1471 1467 1463 1459 1455 1451 1446 1442 1438 1434 1431 1427 1424 1422 1419
1465 1469 1474 1478 1482 1485 1489 1491 1494 1495 1497 1498 1499 1500 1501 1501 1501 1500 1499 1498 1496 1494 1491 1489 1487 1483 1479 1476 1473 1470 1466 1462 1458 1454 1450 1445 1441 1436 1432 1428 1424 1420 1417 1414
1466 1470 1474 1478 1481 1484 1487 1490 1492 1494 1496 1497 1498 1499 1499 1499 1499 1498 1498 1496 1494 1492 1489 1487 1484 1480 1476 1474 1471 1467 1464 1460 1456 1452 1448 1443 1439 1435 1430 1425 1421 1417 1413 1409
1466 1470 1474 1477 1481 1484 1486 1489 1491 1492 1494 1495 1496 1496 1496 1497 1496 1496 1494 1493 1490 1488 1486 1483 1480 1476 1473 1471 1467 1464 1460 1457 1453 1449 1445 1441 1436 1432 1427 1422 1417 1413 1408 1404
1466 1470 1473 1476 1479 1482 1485 1487 1489 1490 1491 1493 1494 1494 1494 1493 1493 1492 1491 1489 1486 1484 1481 1478 1475 1472 1469 1466 1463 1460 1456 1452 1448 1444 1440 1436 1432 1428 1423 1418 1413 1408 1403 1398
1465 1469 1472 1475 1478 1481 1483 1485 1487 1488 1489 1490 1491 1491 1491 1490 1489 1488 1486 1484 1482 1479 1476 1473 1470 1467 1465 1461 1458 1455 1451 1447 1443 1439 1435 1431 1427 1423 1418 1413 1408 1403 1397 1392
1465 1468 1471 1473 1476 1478 1480 1482 1483 1485 1486 1487 1488 1488 1487 1486 1485 1483 1482 1479 1477 1474 1471 1469 1466 1462 1459 1456 1452 1449 1445 1441 1437 1433 1429 1425 1421 1417 1412 1407 1402 1396 1391 1385